DAL2665 KATL-KMYR

Flight info

Callsign DAL2665
Flight time N/A
Altitude 31000
Route GAIRY2 IRQ CAE
Aircraft A320/M-SDE3FGHIRWY/LB1

Departure

Time 2026-04-30 19:04
Airport Hartsfield Jackson Atlanta International Airport (KATL)

Arrival

Time N/A
Airport Myrtle Beach International Airport (KMYR)
Time Latitude Longitude Altitude Speed Heading
2026-04-30 18:34 33.63875 -84.43543 1013 ft 0 kts 270°
2026-04-30 18:48 33.63875 -84.43534 1013 ft 2 kts 270°
2026-04-30 18:48 33.63875 -84.43516 1012 ft 2 kts 270°
2026-04-30 18:49 33.63875 -84.43498 1012 ft 2 kts 270°
2026-04-30 18:49 33.63875 -84.43480 1012 ft 2 kts 270°
2026-04-30 18:49 33.63874 -84.43469 1012 ft 1 kts 270°
2026-04-30 18:49 33.63879 -84.43459 1012 ft 1 kts 204°
2026-04-30 18:50 33.63885 -84.43457 1012 ft 1 kts 170°
2026-04-30 18:50 33.63891 -84.43458 1012 ft 0 kts 180°
2026-04-30 18:54 33.63889 -84.43458 1012 ft 0 kts 180°
2026-04-30 18:54 33.63875 -84.43458 1012 ft 3 kts 180°
2026-04-30 18:54 33.63847 -84.43457 1011 ft 4 kts 180°
2026-04-30 18:54 33.63806 -84.43457 1011 ft 6 kts 180°
2026-04-30 18:55 33.63774 -84.43457 1011 ft 1 kts 180°
2026-04-30 18:55 33.63725 -84.43458 1011 ft 5 kts 180°
2026-04-30 18:55 33.63687 -84.43442 1011 ft 6 kts 137°
2026-04-30 18:56 33.63663 -84.43332 1010 ft 6 kts 89°
2026-04-30 18:56 33.63662 -84.43271 1009 ft 8 kts 91°
2026-04-30 18:56 33.63660 -84.43198 1008 ft 9 kts 95°
2026-04-30 18:57 33.63664 -84.43019 1006 ft 12 kts 89°
2026-04-30 18:57 33.63665 -84.42912 1004 ft 12 kts 92°
2026-04-30 18:57 33.63663 -84.42802 1003 ft 13 kts 90°
2026-04-30 18:58 33.63657 -84.42553 997 ft 17 kts 92°
2026-04-30 18:58 33.63654 -84.42424 993 ft 14 kts 89°
2026-04-30 18:58 33.63655 -84.42294 989 ft 17 kts 90°
2026-04-30 18:59 33.63656 -84.42019 981 ft 14 kts 89°
2026-04-30 19:00 33.63660 -84.41877 975 ft 11 kts 88°
2026-04-30 19:00 33.63661 -84.41769 972 ft 14 kts 92°
2026-04-30 19:00 33.63656 -84.41499 966 ft 18 kts 90°
2026-04-30 19:01 33.63657 -84.41168 960 ft 20 kts 90°
2026-04-30 19:01 33.63656 -84.41011 958 ft 13 kts 90°
2026-04-30 19:02 33.63637 -84.40765 954 ft 6 kts 131°
2026-04-30 19:02 33.63532 -84.40745 953 ft 9 kts 182°
2026-04-30 19:03 33.63471 -84.40834 955 ft 0 kts 268°
2026-04-30 19:03 33.63472 -84.41497 966 ft 111 kts 269°
2026-04-30 19:04 33.63431 -84.44080 1718 ft 170 kts 270°
2026-04-30 19:04 33.63270 -84.46864 3279 ft 179 kts 270°
2026-04-30 19:05 33.62524 -84.50030 4372 ft 222 kts 246°
2026-04-30 19:05 33.60932 -84.53506 5434 ft 257 kts 246°
2026-04-30 19:06 33.58992 -84.57340 6806 ft 284 kts 224°
2026-04-30 19:06 33.57228 -84.58424 7749 ft 292 kts 195°